TimeCST,TemperatureF,Dew PointF,Humidity,Sea Level PressureIn,VisibilityMPH,Wind Direction,Wind SpeedMPH,Gust SpeedMPH,PrecipitationIn,Events,Conditions,WindDirDegrees,DateUTC
12:52 AM,12.9,1.9,62,30.57,10.0,ENE,5.8,-,N/A,,Clear,70,2013-12-08 06:52:00
1:52 AM,12.9,1.9,62,30.54,10.0,ENE,5.8,-,N/A,,Overcast,60,2013-12-08 07:52:00
2:52 AM,14.0,1.9,59,30.51,10.0,ENE,9.2,-,N/A,,Overcast,70,2013-12-08 08:52:00
3:52 AM,14.0,3.0,62,30.49,10.0,East,8.1,-,N/A,,Overcast,100,2013-12-08 09:52:00
4:52 AM,14.0,3.0,62,30.45,10.0,East,8.1,-,N/A,,Overcast,90,2013-12-08 10:52:00
5:52 AM,15.1,3.9,61,30.44,10.0,East,8.1,-,N/A,,Overcast,90,2013-12-08 11:52:00
6:52 AM,15.1,3.9,61,30.42,10.0,ESE,8.1,-,N/A,,Overcast,110,2013-12-08 12:52:00
7:52 AM,16.0,5.0,62,30.36,10.0,East,6.9,-,N/A,,Overcast,80,2013-12-08 13:52:00
8:52 AM,17.1,7.0,65,30.34,9.0,East,10.4,18.4,N/A,,Overcast,90,2013-12-08 14:52:00
9:45 AM,17.6,10.4,73,30.29,1.8,East,13.8,24.2,0.00,Snow,Light Snow,100,2013-12-08 15:45:00
9:52 AM,18.0,12.0,78,30.33,1.2,East,12.7,19.6,0.00,Snow,Light Snow,100,2013-12-08 15:52:00
10:04 AM,17.6,12.2,79,30.28,1.2,East,13.8,23.0,0.00,Snow,Light Snow,100,2013-12-08 16:04:00
10:19 AM,17.6,12.2,79,30.28,1.0,ESE,11.5,19.6,0.00,Snow,Light Snow,110,2013-12-08 16:19:00
10:40 AM,19.4,14.0,80,30.26,0.8,East,10.4,19.6,0.00,Snow,Light Snow,100,2013-12-08 16:40:00
10:50 AM,19.4,14.0,80,30.26,1.2,East,12.7,17.3,0.00,Snow,Light Snow,90,2013-12-08 16:50:00
10:52 AM,19.0,12.9,77,30.30,1.2,East,13.8,17.3,0.00,Snow,Light Snow,80,2013-12-08 16:52:00
11:06 AM,19.4,14.0,80,30.25,0.8,East,5.8,19.6,0.00,Snow,Light Snow,100,2013-12-08 17:06:00
11:52 AM,19.0,15.1,85,30.25,0.5,East,9.2,-,0.01,Fog-Snow,Light Snow,100,2013-12-08 17:52:00
12:19 PM,19.4,15.8,86,30.17,0.8,East,9.2,19.6,0.00,Snow,Light Snow,100,2013-12-08 18:19:00
12:45 PM,19.4,15.8,86,30.14,0.5,East,12.7,-,0.01,Fog-Snow,Snow,80,2013-12-08 18:45:00
12:52 PM,19.9,16.0,85,30.16,0.5,East,13.8,19.6,0.01,Fog-Snow,Snow,90,2013-12-08 18:52:00
1:31 PM,19.4,17.6,93,30.10,0.8,East,9.2,-,0.00,Snow,Light Snow,90,2013-12-08 19:31:00
1:45 PM,19.4,17.6,93,30.10,0.5,East,8.1,17.3,0.01,Fog-Snow,Snow,80,2013-12-08 19:45:00
1:52 PM,19.9,17.1,89,30.14,0.5,East,6.9,-,0.01,Fog-Snow,Snow,80,2013-12-08 19:52:00
2:22 PM,19.4,17.6,93,30.09,0.8,East,6.9,-,0.02,Snow,Light Snow,80,2013-12-08 20:22:00
2:39 PM,19.4,17.6,93,30.08,1.0,East,8.1,-,0.03,Snow,Light Snow,80,2013-12-08 20:39:00
2:42 PM,21.2,17.6,86,30.08,1.2,East,9.2,-,0.03,Snow,Light Snow,80,2013-12-08 20:42:00
2:52 PM,21.0,17.1,85,30.11,1.0,East,8.1,-,0.04,Snow,Light Snow,80,2013-12-08 20:52:00
3:10 PM,19.4,17.6,93,30.06,1.2,East,8.1,-,0.00,Snow,Light Snow,100,2013-12-08 21:10:00
3:23 PM,21.2,17.6,86,30.06,1.5,East,5.8,-,0.01,Snow,Light Snow,90,2013-12-08 21:23:00
3:33 PM,21.2,17.6,86,30.06,2.5,East,8.1,-,0.01,Snow,Light Snow,80,2013-12-08 21:33:00
3:42 PM,21.2,17.6,86,30.07,3.0,East,8.1,-,0.01,Snow,Light Snow,100,2013-12-08 21:42:00
3:52 PM,21.0,17.1,85,30.10,4.0,East,8.1,-,0.01,,Overcast,90,2013-12-08 21:52:00
4:11 PM,21.2,17.6,86,30.06,4.0,East,8.1,-,N/A,,Overcast,100,2013-12-08 22:11:00
4:52 PM,21.0,18.0,88,30.09,6.0,East,5.8,-,N/A,,Overcast,90,2013-12-08 22:52:00
5:00 PM,21.2,17.6,86,30.05,5.0,East,8.1,-,N/A,,Overcast,100,2013-12-08 23:00:00
5:07 PM,21.2,17.6,86,30.05,5.0,East,8.1,-,N/A,,Overcast,90,2013-12-08 23:07:00
5:31 PM,21.2,17.6,86,30.04,4.0,East,6.9,-,0.00,Snow,Light Snow,90,2013-12-08 23:31:00
5:52 PM,21.0,18.0,88,30.08,3.0,East,5.8,-,0.00,Snow,Light Snow,90,2013-12-08 23:52:00
6:52 PM,21.0,18.0,88,30.08,6.0,East,4.6,-,0.00,,Overcast,90,2013-12-09 00:52:00
7:37 PM,21.2,17.6,86,30.04,6.0,SE,4.6,-,N/A,,Overcast,130,2013-12-09 01:37:00
7:52 PM,21.0,18.0,88,30.07,6.0,ESE,4.6,-,N/A,,Overcast,110,2013-12-09 01:52:00
8:01 PM,21.2,19.4,93,30.04,6.0,Calm,Calm,-,N/A,,Overcast,0,2013-12-09 02:01:00
8:52 PM,21.0,19.0,92,30.06,6.0,Calm,Calm,-,N/A,,Overcast,0,2013-12-09 02:52:00
9:52 PM,19.9,18.0,92,30.06,3.0,WSW,4.6,-,0.00,Snow,Light Snow,240,2013-12-09 03:52:00
10:00 PM,19.4,17.6,93,30.03,3.0,WSW,4.6,-,0.00,Snow,Light Snow,240,2013-12-09 04:00:00
10:19 PM,19.4,17.6,93,30.02,3.0,WSW,4.6,-,0.00,Snow,Light Snow,250,2013-12-09 04:19:00
10:26 PM,19.4,17.6,93,30.02,3.0,WSW,4.6,-,0.00,Snow,Light Snow,250,2013-12-09 04:26:00
10:36 PM,19.4,17.6,93,30.02,2.0,West,6.9,-,0.00,Snow,Light Snow,260,2013-12-09 04:36:00
10:45 PM,19.4,17.6,93,30.03,1.8,West,8.1,-,0.00,Snow,Light Snow,260,2013-12-09 04:45:00
10:52 PM,19.9,18.0,92,30.06,1.5,West,8.1,-,0.00,Snow,Light Snow,260,2013-12-09 04:52:00
11:06 PM,19.4,17.6,93,30.02,2.0,WSW,9.2,-,0.00,Snow,Light Snow,250,2013-12-09 05:06:00
11:16 PM,19.4,17.6,93,30.02,1.5,WSW,8.1,-,0.00,Snow,Light Snow,250,2013-12-09 05:16:00
11:31 PM,19.4,17.6,93,30.03,1.8,WSW,10.4,-,0.00,Snow,Light Snow,250,2013-12-09 05:31:00
11:42 PM,19.4,17.6,93,30.03,2.5,West,10.4,-,0.00,Snow,Light Snow,260,2013-12-09 05:42:00
11:52 PM,19.9,17.1,89,30.07,2.5,West,10.4,-,0.00,Snow,Light Snow,260,2013-12-09 05:52:00